Location: Navalespino
(40.5894°N, 4.2660°W)
Time: 02:37:30
(UTC+00:00)

Cosmos 1898 Rocket - Pass Details

Date: 18 April 2024
Orbit: 752 x 781 km, 74.0° (Epoch: 18 May)

Event Time Altitude Azimuth Distance (km) Brightness Sun altitude
Rises 22:10:03 0° 342° (NNW) 3,245 7.8 -30.5°
Reaches altitude 10° 22:12:27 10° 344° (NNW) 2,310 6.8 -30.8°
Enters shadow 22:16:12 47° 358° (N) 1,010 4.3 -31.2°
